Time,TemperatureF,DewpointF,PressureIn,WindDirection,WindDirectionDegrees,WindSpeedMPH,WindSpeedGustMPH,Humidity,HourlyPrecipIn,Conditions,Clouds,dailyrainin,SolarRadiationWatts/m^2,SoftwareType,DateUTC
2013-03-27 00:00:00,51.7,40.7,30.17,North,355,6.0,12.0,66,0.00,,CLR,0.00,0.00,VWS V14.00,2013-03-27 04:00:00,
2013-03-27 00:05:00,51.7,41.1,30.17,North,349,4.0,6.0,67,0.00,,CLR,0.00,0.00,VWS V14.00,2013-03-27 04:05:00,
2013-03-27 00:10:00,51.5,40.9,30.17,NNW,337,3.0,6.0,67,0.00,,CLR,0.00,0.00,VWS V14.00,2013-03-27 04:10:00,
2013-03-27 00:15:00,51.5,40.9,30.17,NW,321,4.0,8.0,67,0.00,,CLR,0.00,0.00,VWS V14.00,2013-03-27 04:15:00,
2013-03-27 00:20:00,51.4,40.8,30.17,NNW,346,5.0,11.0,67,0.00,,CLR,0.00,0.00,VWS V14.00,2013-03-27 04:20:00,
2013-03-27 00:25:00,51.4,41.2,30.17,NNW,348,1.0,5.0,68,0.00,,CLR,0.00,0.00,VWS V14.00,2013-03-27 04:25:00,
2013-03-27 00:30:00,51.3,40.7,30.17,North,350,4.0,10.0,67,0.00,,CLR,0.00,0.00,VWS V14.00,2013-03-27 04:30:00,
2013-03-27 00:35:00,51.2,40.6,30.17,NNW,348,0.0,4.0,67,0.00,,CLR,0.00,0.00,VWS V14.00,2013-03-27 04:35:00,
2013-03-27 00:40:00,51.1,41.3,30.17,NNW,347,4.0,4.0,69,0.00,,CLR,0.00,0.00,VWS V14.00,2013-03-27 04:40:00,
2013-03-27 00:45:00,50.9,41.1,30.16,NNW,348,1.0,2.0,69,0.00,,CLR,0.00,0.00,VWS V14.00,2013-03-27 04:45:00,
2013-03-27 00:50:00,50.7,41.3,30.16,North,349,3.0,5.0,70,0.00,,CLR,0.00,0.00,VWS V14.00,2013-03-27 04:50:00,
2013-03-27 00:55:00,50.5,41.1,30.17,NNW,342,5.0,6.0,70,0.00,,CLR,0.00,0.00,VWS V14.00,2013-03-27 04:55:00,
2013-03-27 01:00:00,50.3,40.9,30.16,NNW,345,3.0,7.0,70,0.00,,CLR,0.00,0.00,VWS V14.00,2013-03-27 05:00:00,
2013-03-27 01:05:00,50.2,41.2,30.16,North,355,6.0,6.0,71,0.00,,CLR,0.00,0.00,VWS V14.00,2013-03-27 05:05:00,
2013-03-27 01:10:00,50.0,41.0,30.16,North,355,3.0,4.0,71,0.00,,CLR,0.00,0.00,VWS V14.00,2013-03-27 05:10:00,
2013-03-27 01:15:00,49.7,40.7,30.16,North,355,6.0,7.0,71,0.00,,CLR,0.00,0.00,VWS V14.00,2013-03-27 05:15:00,
2013-03-27 01:21:00,49.6,41.0,30.16,North,351,4.0,6.0,72,0.00,,CLR,0.00,0.00,VWS V14.00,2013-03-27 05:21:00,
2013-03-27 01:26:00,49.4,40.8,30.16,North,350,4.0,6.0,72,0.00,,CLR,0.00,0.00,VWS V14.00,2013-03-27 05:26:00,
2013-03-27 01:31:00,49.3,41.0,30.16,North,349,3.0,3.0,73,0.00,,CLR,0.00,0.00,VWS V14.00,2013-03-27 05:31:00,
2013-03-27 01:36:00,49.2,40.9,30.16,NNW,347,4.0,4.0,73,0.00,,CLR,0.00,0.00,VWS V14.00,2013-03-27 05:36:00,
2013-03-27 01:41:00,49.0,40.7,30.16,NNW,346,0.0,5.0,73,0.00,,CLR,0.00,0.00,VWS V14.00,2013-03-27 05:41:00,
2013-03-27 01:46:00,48.9,41.0,30.16,NNW,346,2.0,4.0,74,0.00,,CLR,0.00,0.00,VWS V14.00,2013-03-27 05:46:00,
2013-03-27 01:51:00,48.8,41.2,30.16,NNW,346,4.0,4.0,75,0.00,,CLR,0.00,0.00,VWS V14.00,2013-03-27 05:51:00,
2013-03-27 01:56:00,48.7,41.1,30.16,NNW,346,0.0,2.0,75,0.00,,CLR,0.00,0.00,VWS V14.00,2013-03-27 05:56:00,
2013-03-27 02:01:00,48.6,41.0,30.16,NNW,346,0.0,5.0,75,0.00,,CLR,0.00,0.00,VWS V14.00,2013-03-27 06:01:00,
2013-03-27 02:06:00,48.5,41.0,30.15,NNW,346,0.0,0.0,75,0.00,,CLR,0.00,0.00,VWS V14.00,2013-03-27 06:06:00,
2013-03-27 02:11:00,48.4,41.2,30.15,NNW,346,0.0,1.0,76,0.00,,CLR,0.00,0.00,VWS V14.00,2013-03-27 06:11:00,
2013-03-27 02:16:00,48.3,41.1,30.15,NNW,346,1.0,4.0,76,0.00,,CLR,0.00,0.00,VWS V14.00,2013-03-27 06:16:00,
2013-03-27 02:21:00,48.4,41.5,30.15,NNW,346,0.0,2.0,77,0.00,,CLR,0.00,0.00,VWS V14.00,2013-03-27 06:21:00,
2013-03-27 02:26:00,48.3,41.4,30.15,NNW,346,0.0,3.0,77,0.00,,CLR,0.00,0.00,VWS V14.00,2013-03-27 06:26:00,
2013-03-27 02:32:00,48.2,41.7,30.15,NNW,346,0.0,1.0,78,0.00,,CLR,0.00,0.00,VWS V14.00,2013-03-27 06:32:00,
2013-03-27 02:37:00,48.2,43.0,30.15,NNW,346,0.0,3.0,82,0.00,,CLR,0.00,0.00,VWS V14.00,2013-03-27 06:37:00,
2013-03-27 02:42:00,48.2,42.0,30.15,North,350,4.0,5.0,79,0.00,,CLR,0.00,0.00,VWS V14.00,2013-03-27 06:42:00,
2013-03-27 02:47:00,48.3,41.4,30.15,NNE,17,1.0,5.0,77,0.00,,CLR,0.00,0.00,VWS V14.00,2013-03-27 06:47:00,
2013-03-27 02:52:00,48.6,41.0,30.14,NNE,14,5.0,5.0,75,0.00,,CLR,0.00,0.00,VWS V14.00,2013-03-27 06:52:00,
2013-03-27 02:57:00,48.7,40.5,30.14,NNE,13,3.0,5.0,73,0.00,,CLR,0.00,0.00,VWS V14.00,2013-03-27 06:57:00,
2013-03-27 03:02:00,48.7,40.1,30.14,NNE,13,5.0,6.0,72,0.00,,CLR,0.00,0.00,VWS V14.00,2013-03-27 07:02:00,
2013-03-27 03:07:00,48.8,40.2,30.14,North,5,6.0,9.0,72,0.00,,CLR,0.00,0.00,VWS V14.00,2013-03-27 07:07:00,
2013-03-27 03:12:00,48.7,39.7,30.15,North,10,6.0,8.0,71,0.00,,CLR,0.00,0.00,VWS V14.00,2013-03-27 07:12:00,
2013-03-27 03:17:00,48.7,39.7,30.14,NNE,13,3.0,6.0,71,0.00,,CLR,0.00,0.00,VWS V14.00,2013-03-27 07:17:00,
2013-03-27 03:22:00,48.7,39.7,30.15,NNE,13,5.0,7.0,71,0.00,,CLR,0.00,0.00,VWS V14.00,2013-03-27 07:22:00,
2013-03-27 03:27:00,48.6,40.0,30.14,North,11,6.0,6.0,72,0.00,,CLR,0.00,0.00,VWS V14.00,2013-03-27 07:27:00,
2013-03-27 03:32:00,48.6,40.0,30.14,North,9,1.0,6.0,72,0.00,,CLR,0.00,0.00,VWS V14.00,2013-03-27 07:32:00,
2013-03-27 03:37:00,48.5,40.2,30.14,North,5,4.0,7.0,73,0.00,,CLR,0.00,0.00,VWS V14.00,2013-03-27 07:37:00,
2013-03-27 03:42:00,48.5,39.9,30.14,North,9,2.0,7.0,72,0.00,,CLR,0.00,0.00,VWS V14.00,2013-03-27 07:42:00,
2013-03-27 03:47:00,48.4,39.8,30.14,North,5,9.0,11.0,72,0.00,,CLR,0.00,0.00,VWS V14.00,2013-03-27 07:47:00,
2013-03-27 03:52:00,48.3,39.7,30.13,NNE,15,2.0,7.0,72,0.00,,CLR,0.00,0.00,VWS V14.00,2013-03-27 07:52:00,
2013-03-27 03:57:00,48.3,39.7,30.13,NNE,13,1.0,7.0,72,0.00,,CLR,0.00,0.00,VWS V14.00,2013-03-27 07:57:00,
2013-03-27 04:02:00,48.2,39.6,30.13,North,5,4.0,7.0,72,0.00,,CLR,0.00,0.00,VWS V14.00,2013-03-27 08:02:00,
2013-03-27 04:07:00,48.2,39.6,30.13,North,355,3.0,9.0,72,0.00,,CLR,0.00,0.00,VWS V14.00,2013-03-27 08:07:00,
2013-03-27 04:12:00,48.1,39.2,30.13,NNE,13,4.0,7.0,71,0.00,,CLR,0.00,0.00,VWS V14.00,2013-03-27 08:12:00,
2013-03-27 04:17:00,48.1,39.2,30.13,North,5,6.0,10.0,71,0.00,,CLR,0.00,0.00,VWS V14.00,2013-03-27 08:17:00,
2013-03-27 04:23:00,48.0,38.7,30.13,North,11,5.0,11.0,70,0.00,,CLR,0.00,0.00,VWS V14.00,2013-03-27 08:23:00,
2013-03-27 04:28:00,48.0,39.1,30.13,North,9,6.0,10.0,71,0.00,,CLR,0.00,0.00,VWS V14.00,2013-03-27 08:28:00,
2013-03-27 04:33:00,47.9,39.0,30.13,NNW,348,6.0,7.0,71,0.00,,CLR,0.00,0.00,VWS V14.00,2013-03-27 08:33:00,
2013-03-27 04:38:00,47.9,39.0,30.13,North,5,3.0,5.0,71,0.00,,CLR,0.00,0.00,VWS V14.00,2013-03-27 08:38:00,
2013-03-27 04:43:00,47.7,39.1,30.13,North,9,1.0,3.0,72,0.00,,CLR,0.00,0.00,VWS V14.00,2013-03-27 08:43:00,
2013-03-27 04:48:00,47.6,39.0,30.13,North,5,2.0,5.0,72,0.00,,CLR,0.00,0.00,VWS V14.00,2013-03-27 08:48:00,
2013-03-27 04:53:00,47.5,39.3,30.13,North,5,3.0,4.0,73,0.00,,CLR,0.00,0.00,VWS V14.00,2013-03-27 08:53:00,
2013-03-27 04:58:00,47.4,39.2,30.13,North,5,4.0,5.0,73,0.00,,CLR,0.00,0.00,VWS V14.00,2013-03-27 08:58:00,
2013-03-27 05:03:00,47.2,38.7,30.13,NNE,12,9.0,12.0,72,0.00,,CLR,0.00,0.00,VWS V14.00,2013-03-27 09:03:00,
2013-03-27 05:08:00,47.2,38.7,30.13,NNE,24,7.0,7.0,72,0.00,,CLR,0.00,0.00,VWS V14.00,2013-03-27 09:08:00,
2013-03-27 05:13:00,47.1,38.5,30.14,NNE,17,4.0,6.0,72,0.00,,CLR,0.00,0.00,VWS V14.00,2013-03-27 09:13:00,
2013-03-27 05:18:00,47.0,38.5,30.14,NNE,12,2.0,7.0,72,0.00,,CLR,0.00,0.00,VWS V14.00,2013-03-27 09:18:00,
2013-03-27 05:23:00,46.9,38.4,30.14,NNE,17,5.0,11.0,72,0.00,,CLR,0.00,0.00,VWS V14.00,2013-03-27 09:23:00,
2013-03-27 05:28:00,46.9,38.4,30.14,NNE,20,4.0,9.0,72,0.00,,CLR,0.00,0.00,VWS V14.00,2013-03-27 09:28:00,
2013-03-27 05:33:00,46.8,38.3,30.14,NNE,26,5.0,6.0,72,0.00,,CLR,0.00,0.00,VWS V14.00,2013-03-27 09:33:00,
2013-03-27 05:38:00,46.7,38.2,30.14,NNE,19,1.0,7.0,72,0.00,,CLR,0.00,0.00,VWS V14.00,2013-03-27 09:38:00,
2013-03-27 05:43:00,46.6,38.1,30.14,NNE,13,4.0,9.0,72,0.00,,CLR,0.00,0.00,VWS V14.00,2013-03-27 09:43:00,
2013-03-27 05:48:00,46.5,38.0,30.14,NNE,14,5.0,6.0,72,0.00,,CLR,0.00,0.00,VWS V14.00,2013-03-27 09:48:00,
2013-03-27 05:53:00,46.5,38.0,30.14,North,11,2.0,6.0,72,0.00,,CLR,0.00,0.00,VWS V14.00,2013-03-27 09:53:00,
2013-03-27 05:58:00,46.5,38.0,30.14,North,11,4.0,5.0,72,0.00,,CLR,0.00,0.00,VWS V14.00,2013-03-27 09:58:00,
2013-03-27 06:03:00,46.5,38.0,30.14,North,11,4.0,5.0,72,0.00,,CLR,0.00,0.00,VWS V14.00,2013-03-27 10:03:00,
2013-03-27 06:08:00,46.5,38.3,30.15,North,11,4.0,5.0,73,0.00,,CLR,0.00,0.00,VWS V14.00,2013-03-27 10:08:00,
2013-03-27 06:13:00,46.5,38.3,30.15,North,11,3.0,4.0,73,0.00,,CLR,0.00,0.00,VWS V14.00,2013-03-27 10:13:00,
2013-03-27 06:18:00,46.5,38.3,30.15,North,11,2.0,6.0,73,0.00,,CLR,0.00,0.00,VWS V14.00,2013-03-27 10:18:00,
2013-03-27 06:23:00,46.5,38.3,30.15,North,10,6.0,6.0,73,0.00,,CLR,0.00,0.00,VWS V14.00,2013-03-27 10:23:00,
2013-03-27 06:28:00,46.5,38.3,30.15,NNE,15,4.0,5.0,73,0.00,,CLR,0.00,0.00,VWS V14.00,2013-03-27 10:28:00,
2013-03-27 06:33:00,46.5,38.0,30.16,North,9,4.0,5.0,72,0.00,,CLR,0.00,0.00,VWS V14.00,2013-03-27 10:33:00,
2013-03-27 06:38:00,46.6,37.7,30.16,North,5,5.0,7.0,71,0.00,,CLR,0.00,0.00,VWS V14.00,2013-03-27 10:38:00,
2013-03-27 06:43:00,46.7,37.8,30.15,North,5,3.0,6.0,71,0.00,,CLR,0.00,0.00,VWS V14.00,2013-03-27 10:43:00,
2013-03-27 06:48:00,46.6,37.3,30.16,North,10,0.0,6.0,70,0.00,,CLR,0.00,0.00,VWS V14.00,2013-03-27 10:48:00,
2013-03-27 06:53:00,46.6,37.3,30.16,North,9,6.0,10.0,70,0.00,,CLR,0.00,0.00,VWS V14.00,2013-03-27 10:53:00,
2013-03-27 06:58:00,46.7,37.5,30.16,NNE,13,6.0,9.0,70,0.00,,CLR,0.00,0.00,VWS V14.00,2013-03-27 10:58:00,
2013-03-27 07:03:00,46.7,37.5,30.16,NNE,13,4.0,6.0,70,0.00,,CLR,0.00,0.00,VWS V14.00,2013-03-27 11:03:00,
2013-03-27 07:08:00,46.8,37.5,30.16,NNE,13,4.0,5.0,70,0.00,,CLR,0.00,0.00,VWS V14.00,2013-03-27 11:08:00,
2013-03-27 07:13:00,46.8,37.5,30.17,NNE,14,4.0,7.0,70,0.00,,CLR,0.00,0.00,VWS V14.00,2013-03-27 11:13:00,
2013-03-27 07:18:00,46.9,37.3,30.17,North,9,3.0,8.0,69,0.00,,CLR,0.00,0.00,VWS V14.00,2013-03-27 11:18:00,
2013-03-27 07:23:00,47.0,37.4,30.17,North,10,2.0,7.0,69,0.00,,CLR,0.00,7.00,VWS V14.00,2013-03-27 11:23:00,
2013-03-27 07:28:00,47.0,37.7,30.17,North,10,3.0,7.0,70,0.00,,CLR,0.00,49.00,VWS V14.00,2013-03-27 11:28:00,
2013-03-27 07:33:00,47.1,37.8,30.17,North,5,1.0,4.0,70,0.00,,SKC,0.00,79.00,VWS V14.00,2013-03-27 11:33:00,
2013-03-27 07:38:00,47.2,37.9,30.18,North,5,6.0,7.0,70,0.00,,SKC,0.00,105.00,VWS V14.00,2013-03-27 11:38:00,
2013-03-27 07:43:00,47.3,38.0,30.18,North,5,1.0,4.0,70,0.00,,SKC,0.00,123.00,VWS V14.00,2013-03-27 11:43:00,
2013-03-27 07:48:00,47.5,38.2,30.18,North,9,4.0,9.0,70,0.00,,SKC,0.00,134.00,VWS V14.00,2013-03-27 11:48:00,
2013-03-27 07:53:00,47.7,38.0,30.18,North,5,10.0,11.0,69,0.00,,SKC,0.00,142.00,VWS V14.00,2013-03-27 11:53:00,
2013-03-27 07:58:00,47.9,37.5,30.18,North,5,8.0,12.0,67,0.00,,SKC,0.00,146.00,VWS V14.00,2013-03-27 11:58:00,
2013-03-27 08:03:00,48.1,37.3,30.18,North,5,9.0,11.0,66,0.00,,SKC,0.00,149.00,VWS V14.00,2013-03-27 12:03:00,
2013-03-27 08:08:00,48.3,37.9,30.18,North,9,6.0,9.0,67,0.00,,SKC,0.00,151.00,VWS V14.00,2013-03-27 12:08:00,
2013-03-27 08:13:00,48.7,37.9,30.18,NE,39,12.0,12.0,66,0.00,,SKC,0.00,148.00,VWS V14.00,2013-03-27 12:13:00,
2013-03-27 08:18:00,49.0,37.4,30.19,NNE,17,4.0,13.0,64,0.00,,SKC,0.00,146.00,VWS V14.00,2013-03-27 12:18:00,
2013-03-27 08:23:00,49.3,37.2,30.19,NNE,19,10.0,11.0,63,0.00,,SKC,0.00,144.00,VWS V14.00,2013-03-27 12:23:00,
2013-03-27 08:28:00,49.7,37.6,30.19,NNE,22,6.0,6.0,63,0.00,,SKC,0.00,141.00,VWS V14.00,2013-03-27 12:28:00,
2013-03-27 08:33:00,50.1,37.6,30.19,NNE,25,8.0,8.0,62,0.00,,SKC,0.00,137.00,VWS V14.00,2013-03-27 12:33:00,
2013-03-27 08:38:00,50.3,37.0,30.19,North,360,15.0,15.0,60,0.00,,SKC,0.00,135.00,VWS V14.00,2013-03-27 12:38:00,
2013-03-27 08:44:00,50.5,37.2,30.20,North,5,5.0,9.0,60,0.00,,SKC,0.00,135.00,VWS V14.00,2013-03-27 12:44:00,
2013-03-27 08:49:00,50.9,37.5,30.19,North,360,6.0,10.0,60,0.00,,SKC,0.00,139.00,VWS V14.00,2013-03-27 12:49:00,
2013-03-27 08:54:00,51.3,37.5,30.20,North,5,6.0,13.0,59,0.00,,SKC,0.00,144.00,VWS V14.00,2013-03-27 12:54:00,
2013-03-27 08:59:00,51.7,37.8,30.20,North,5,11.0,12.0,59,0.00,,SKC,0.00,148.00,VWS V14.00,2013-03-27 12:59:00,
2013-03-27 09:04:00,51.9,37.6,30.19,North,5,5.0,12.0,58,0.00,,SKC,0.00,151.00,VWS V14.00,2013-03-27 13:04:00,
2013-03-27 09:09:00,52.3,37.5,30.20,North,355,14.0,16.0,57,0.00,,SKC,0.00,153.00,VWS V14.00,2013-03-27 13:09:00,
2013-03-27 09:14:00,52.6,37.8,30.20,NE,35,13.0,16.0,57,0.00,,SKC,0.00,156.00,VWS V14.00,2013-03-27 13:14:00,
2013-03-27 09:19:00,52.6,37.4,30.20,NNE,12,12.0,16.0,56,0.00,,SKC,0.00,158.00,VWS V14.00,2013-03-27 13:19:00,
2013-03-27 09:24:00,52.9,37.7,30.20,North,350,14.0,15.0,56,0.00,,SKC,0.00,160.00,VWS V14.00,2013-03-27 13:24:00,
2013-03-27 09:29:00,53.2,37.9,30.20,NNE,28,9.0,12.0,56,0.00,,SKC,0.00,163.00,VWS V14.00,2013-03-27 13:29:00,
2013-03-27 09:34:00,53.7,39.3,30.20,North,360,6.0,12.0,58,0.00,,SKC,0.00,165.00,VWS V14.00,2013-03-27 13:34:00,
2013-03-27 09:39:00,53.8,38.9,30.20,North,355,14.0,14.0,57,0.00,,SKC,0.00,167.00,VWS V14.00,2013-03-27 13:39:00,
2013-03-27 09:44:00,54.1,39.2,30.20,North,360,10.0,14.0,57,0.00,,SKC,0.00,167.00,VWS V14.00,2013-03-27 13:44:00,
2013-03-27 09:49:00,54.1,38.8,30.20,NNE,27,11.0,15.0,56,0.00,,SKC,0.00,169.00,VWS V14.00,2013-03-27 13:49:00,
2013-03-27 09:54:00,54.4,39.5,30.21,North,5,14.0,18.0,57,0.00,,SKC,0.00,169.00,VWS V14.00,2013-03-27 13:54:00,
2013-03-27 09:59:00,54.7,40.7,30.21,NNE,15,8.0,9.0,59,0.00,,SKC,0.00,169.00,VWS V14.00,2013-03-27 13:59:00,
2013-03-27 10:04:00,55.1,40.2,30.21,North,5,8.0,14.0,57,0.00,,SKC,0.00,169.00,VWS V14.00,2013-03-27 14:04:00,
2013-03-27 10:09:00,55.4,40.9,30.21,NNW,345,10.0,15.0,58,0.00,,SKC,0.00,169.00,VWS V14.00,2013-03-27 14:09:00,
2013-03-27 10:14:00,56.0,41.5,30.21,NNE,19,16.0,17.0,58,0.00,,SKC,0.00,169.00,VWS V14.00,2013-03-27 14:14:00,
2013-03-27 10:19:00,56.1,41.1,30.21,NNE,14,7.0,15.0,57,0.00,,SKC,0.00,169.00,VWS V14.00,2013-03-27 14:19:00,
2013-03-27 10:24:00,56.1,41.1,30.21,North,355,9.0,12.0,57,0.00,,SKC,0.00,169.00,VWS V14.00,2013-03-27 14:24:00,
2013-03-27 10:29:00,56.5,41.9,30.21,NNE,15,10.0,16.0,58,0.00,,SKC,0.00,169.00,VWS V14.00,2013-03-27 14:29:00,
2013-03-27 10:34:00,56.5,41.5,30.21,NE,36,7.0,13.0,57,0.00,,SKC,0.00,169.00,VWS V14.00,2013-03-27 14:34:00,
2013-03-27 10:39:00,56.8,41.8,30.22,North,5,12.0,16.0,57,0.00,,SKC,0.00,169.00,VWS V14.00,2013-03-27 14:39:00,
2013-03-27 10:44:00,57.0,42.4,30.21,North,5,12.0,14.0,58,0.00,,SKC,0.00,169.00,VWS V14.00,2013-03-27 14:44:00,
2013-03-27 10:49:00,57.3,42.7,30.22,NNE,18,5.0,11.0,58,0.00,,SKC,0.00,169.00,VWS V14.00,2013-03-27 14:49:00,
2013-03-27 10:54:00,57.5,42.4,30.22,NNE,17,10.0,15.0,57,0.00,,SKC,0.00,169.00,VWS V14.00,2013-03-27 14:54:00,
2013-03-27 10:59:00,57.9,43.2,30.21,NE,46,8.0,11.0,58,0.00,,SKC,0.00,167.00,VWS V14.00,2013-03-27 14:59:00,
2013-03-27 11:04:00,58.2,43.1,30.21,NNE,27,10.0,11.0,57,0.00,,SKC,0.00,167.00,VWS V14.00,2013-03-27 15:04:00,
2013-03-27 11:09:00,58.3,42.7,30.21,North,5,13.0,15.0,56,0.00,,SKC,0.00,165.00,VWS V14.00,2013-03-27 15:09:00,
2013-03-27 11:14:00,58.3,43.2,30.21,North,355,9.0,13.0,57,0.00,,SKC,0.00,165.00,VWS V14.00,2013-03-27 15:14:00,
2013-03-27 11:19:00,58.5,43.3,30.21,North,355,5.0,15.0,57,0.00,,SKC,0.00,165.00,VWS V14.00,2013-03-27 15:19:00,
2013-03-27 11:24:00,58.9,43.7,30.20,North,349,11.0,12.0,57,0.00,,SKC,0.00,163.00,VWS V14.00,2013-03-27 15:24:00,
2013-03-27 11:29:00,59.2,44.0,30.21,NNW,345,9.0,14.0,57,0.00,,SKC,0.00,163.00,VWS V14.00,2013-03-27 15:29:00,
2013-03-27 11:35:00,59.4,44.2,30.21,North,360,4.0,11.0,57,0.00,,SKC,0.00,163.00,VWS V14.00,2013-03-27 15:35:00,
2013-03-27 11:39:00,60.0,43.8,30.21,North,5,14.0,16.0,55,0.00,,SKC,0.00,162.00,VWS V14.00,2013-03-27 15:39:00,
2013-03-27 11:44:00,60.0,44.7,30.21,NNW,340,4.0,7.0,57,0.00,,SKC,0.00,160.00,VWS V14.00,2013-03-27 15:44:00,
2013-03-27 11:49:00,60.2,44.5,30.21,NNE,20,9.0,12.0,56,0.00,,SKC,0.00,160.00,VWS V14.00,2013-03-27 15:49:00,
2013-03-27 11:55:00,60.0,44.3,30.21,ENE,65,9.0,13.0,56,0.00,,SKC,0.00,160.00,VWS V14.00,2013-03-27 15:55:00,
2013-03-27 12:00:00,60.3,44.1,30.20,North,5,11.0,15.0,55,0.00,,SKC,0.00,158.00,VWS V14.00,2013-03-27 16:00:00,
2013-03-27 12:05:00,60.4,44.2,30.20,North,10,5.0,11.0,55,0.00,,SKC,0.00,156.00,VWS V14.00,2013-03-27 16:05:00,
2013-03-27 12:10:00,60.6,43.9,30.20,North,355,5.0,9.0,54,0.00,,SKC,0.00,156.00,VWS V14.00,2013-03-27 16:10:00,
2013-03-27 12:15:00,60.9,44.2,30.20,NNW,329,4.0,12.0,54,0.00,,SKC,0.00,155.00,VWS V14.00,2013-03-27 16:15:00,
2013-03-27 12:20:00,60.8,44.1,30.20,North,5,8.0,12.0,54,0.00,,SKC,0.00,155.00,VWS V14.00,2013-03-27 16:20:00,
2013-03-27 12:25:00,61.0,44.7,30.20,North,5,11.0,13.0,55,0.00,,SKC,0.00,153.00,VWS V14.00,2013-03-27 16:25:00,
2013-03-27 12:30:00,61.1,43.9,30.20,North,360,7.0,9.0,53,0.00,,SKC,0.00,151.00,VWS V14.00,2013-03-27 16:30:00,
2013-03-27 12:35:00,61.3,43.5,30.20,North,5,5.0,13.0,52,0.00,,SKC,0.00,149.00,VWS V14.00,2013-03-27 16:35:00,
2013-03-27 12:40:00,61.4,43.6,30.20,NE,50,4.0,10.0,52,0.00,,SKC,0.00,149.00,VWS V14.00,2013-03-27 16:40:00,
2013-03-27 12:45:00,61.6,44.3,30.19,NNW,333,10.0,11.0,53,0.00,,SKC,0.00,151.00,VWS V14.00,2013-03-27 16:45:00,
2013-03-27 12:50:00,61.9,43.1,30.19,NNW,346,3.0,9.0,50,0.00,,SKC,0.00,153.00,VWS V14.00,2013-03-27 16:50:00,
2013-03-27 12:55:00,62.2,43.9,30.19,North,360,9.0,15.0,51,0.00,,SKC,0.00,155.00,VWS V14.00,2013-03-27 16:55:00,
2013-03-27 13:00:00,61.8,43.5,30.19,North,5,4.0,7.0,51,0.00,,SKC,0.00,158.00,VWS V14.00,2013-03-27 17:00:00,
2013-03-27 13:05:00,61.9,43.1,30.19,NNW,348,5.0,11.0,50,0.00,,SKC,0.00,158.00,VWS V14.00,2013-03-27 17:05:00,
2013-03-27 13:10:00,61.7,42.4,30.19,NNE,25,10.0,12.0,49,0.00,,SKC,0.00,162.00,VWS V14.00,2013-03-27 17:10:00,
2013-03-27 13:15:00,62.2,43.9,30.18,North,351,5.0,6.0,51,0.00,,SKC,0.00,163.00,VWS V14.00,2013-03-27 17:15:00,
2013-03-27 13:20:00,62.4,42.5,30.18,WNW,301,4.0,5.0,48,0.00,,SKC,0.00,163.00,VWS V14.00,2013-03-27 17:20:00,
2013-03-27 13:25:00,62.5,42.6,30.18,NE,50,3.0,7.0,48,0.00,,SKC,0.00,163.00,VWS V14.00,2013-03-27 17:25:00,
2013-03-27 13:30:00,62.6,43.2,30.18,NNW,345,3.0,5.0,49,0.00,,SKC,0.00,165.00,VWS V14.00,2013-03-27 17:30:00,
2013-03-27 13:35:00,63.2,43.7,30.18,North,355,2.0,9.0,49,0.00,,SKC,0.00,165.00,VWS V14.00,2013-03-27 17:35:00,
2013-03-27 13:40:00,63.5,42.9,30.18,NNE,19,14.0,14.0,47,0.00,,SKC,0.00,165.00,VWS V14.00,2013-03-27 17:40:00,
2013-03-27 13:45:00,63.2,42.7,30.17,NW,325,2.0,6.0,47,0.00,,SKC,0.00,165.00,VWS V14.00,2013-03-27 17:45:00,
2013-03-27 13:50:00,63.4,42.3,30.17,NNE,31,3.0,6.0,46,0.00,,SKC,0.00,165.00,VWS V14.00,2013-03-27 17:50:00,
2013-03-27 13:55:00,63.1,43.1,30.17,North,350,7.0,7.0,48,0.00,,SKC,0.00,165.00,VWS V14.00,2013-03-27 17:55:00,
2013-03-27 14:00:00,63.3,42.8,30.17,WNW,303,5.0,7.0,47,0.00,,SKC,0.00,165.00,VWS V14.00,2013-03-27 18:00:00,
2013-03-27 14:05:00,63.7,43.1,30.17,NW,308,10.0,10.0,47,0.00,,SKC,0.00,165.00,VWS V14.00,2013-03-27 18:05:00,
2013-03-27 14:10:00,64.1,43.5,30.16,WNW,294,6.0,10.0,47,0.00,,SKC,0.00,163.00,VWS V14.00,2013-03-27 18:10:00,
2013-03-27 14:15:00,64.1,42.9,30.16,WNW,301,6.0,10.0,46,0.00,,SKC,0.00,165.00,VWS V14.00,2013-03-27 18:15:00,
2013-03-27 14:20:00,64.1,42.3,30.16,North,9,9.0,9.0,45,0.00,,SKC,0.00,163.00,VWS V14.00,2013-03-27 18:20:00,
2013-03-27 14:25:00,63.9,43.8,30.16,NNW,335,5.0,8.0,48,0.00,,SKC,0.00,163.00,VWS V14.00,2013-03-27 18:25:00,
2013-03-27 14:30:00,64.4,42.0,30.16,North,355,3.0,9.0,44,0.00,,SKC,0.00,162.00,VWS V14.00,2013-03-27 18:30:00,
2013-03-27 14:35:00,64.3,43.1,30.16,North,5,2.0,9.0,46,0.00,,SKC,0.00,162.00,VWS V14.00,2013-03-27 18:35:00,
2013-03-27 14:40:00,64.3,43.1,30.16,NNE,19,5.0,9.0,46,0.00,,SKC,0.00,162.00,VWS V14.00,2013-03-27 18:40:00,
2013-03-27 14:45:00,64.2,42.4,30.16,North,5,5.0,10.0,45,0.00,,SKC,0.00,160.00,VWS V14.00,2013-03-27 18:45:00,
2013-03-27 14:50:00,64.3,43.1,30.15,North,9,6.0,9.0,46,0.00,,SKC,0.00,158.00,VWS V14.00,2013-03-27 18:50:00,
2013-03-27 14:55:00,64.0,41.7,30.15,NNE,13,4.0,10.0,44,0.00,,SKC,0.00,158.00,VWS V14.00,2013-03-27 18:55:00,
2013-03-27 15:00:00,63.9,43.3,30.15,North,9,0.0,7.0,47,0.00,,SKC,0.00,156.00,VWS V14.00,2013-03-27 19:00:00,
2013-03-27 15:05:00,64.9,42.5,30.15,West,273,5.0,7.0,44,0.00,,SKC,0.00,155.00,VWS V14.00,2013-03-27 19:05:00,
2013-03-27 15:10:00,65.6,42.5,30.15,WNW,290,2.0,12.0,43,0.00,,SKC,0.00,153.00,VWS V14.00,2013-03-27 19:10:00,
2013-03-27 15:15:00,65.6,42.5,30.15,NNE,15,11.0,11.0,43,0.00,,SKC,0.00,153.00,VWS V14.00,2013-03-27 19:15:00,
2013-03-27 15:20:00,65.4,42.9,30.15,North,355,7.0,9.0,44,0.00,,SKC,0.00,151.00,VWS V14.00,2013-03-27 19:20:00,
2013-03-27 15:25:00,65.1,42.7,30.14,North,355,3.0,7.0,44,0.00,,SKC,0.00,149.00,VWS V14.00,2013-03-27 19:25:00,
2013-03-27 15:30:00,65.2,42.8,30.14,NNW,333,2.0,4.0,44,0.00,,SKC,0.00,148.00,VWS V14.00,2013-03-27 19:30:00,
2013-03-27 15:35:00,65.7,42.6,30.14,NW,315,5.0,6.0,43,0.00,,SKC,0.00,148.00,VWS V14.00,2013-03-27 19:35:00,
2013-03-27 15:41:00,66.3,42.5,30.14,NW,309,0.0,3.0,42,0.00,,SKC,0.00,146.00,VWS V14.00,2013-03-27 19:41:00,
2013-03-27 15:46:00,66.7,43.5,30.14,NW,309,0.0,3.0,43,0.00,,SKC,0.00,144.00,VWS V14.00,2013-03-27 19:46:00,
2013-03-27 15:51:00,66.7,43.5,30.14,NW,306,7.0,10.0,43,0.00,,SKC,0.00,142.00,VWS V14.00,2013-03-27 19:51:00,
2013-03-27 15:56:00,66.2,43.7,30.13,North,349,7.0,10.0,44,0.00,,SKC,0.00,139.00,VWS V14.00,2013-03-27 19:56:00,
2013-03-27 16:01:00,66.0,42.9,30.13,NW,311,3.0,6.0,43,0.00,,SKC,0.00,139.00,VWS V14.00,2013-03-27 20:01:00,
2013-03-27 16:06:00,66.1,43.0,30.13,NW,311,0.0,3.0,43,0.00,,SKC,0.00,137.00,VWS V14.00,2013-03-27 20:06:00,
2013-03-27 16:11:00,66.3,43.2,30.13,NNE,32,10.0,10.0,43,0.00,,SKC,0.00,134.00,VWS V14.00,2013-03-27 20:11:00,
2013-03-27 16:16:00,65.7,42.6,30.13,North,355,8.0,11.0,43,0.00,,SKC,0.00,132.00,VWS V14.00,2013-03-27 20:16:00,
2013-03-27 16:21:00,65.8,43.3,30.13,NNW,335,3.0,7.0,44,0.00,,SKC,0.00,130.00,VWS V14.00,2013-03-27 20:21:00,
2013-03-27 16:26:00,66.6,44.0,30.13,NW,321,1.0,5.0,44,0.00,,SKC,0.00,128.00,VWS V14.00,2013-03-27 20:26:00,
2013-03-27 16:31:00,66.5,43.3,30.13,NNW,328,5.0,7.0,43,0.00,,SKC,0.00,125.00,VWS V14.00,2013-03-27 20:31:00,
2013-03-27 16:37:00,66.4,42.6,30.13,NW,321,4.0,13.0,42,0.00,,SKC,0.00,123.00,VWS V14.00,2013-03-27 20:37:00,
2013-03-27 16:42:00,66.0,41.7,30.13,WNW,296,3.0,10.0,41,0.00,,SKC,0.00,121.00,VWS V14.00,2013-03-27 20:42:00,
2013-03-27 16:47:00,66.4,42.0,30.13,NE,55,9.0,9.0,41,0.00,,SKC,0.00,118.00,VWS V14.00,2013-03-27 20:47:00,
2013-03-27 16:52:00,65.6,43.1,30.13,NNE,16,10.0,10.0,44,0.00,,SKC,0.00,116.00,VWS V14.00,2013-03-27 20:52:00,
2013-03-27 16:57:00,65.5,41.8,30.13,North,360,7.0,10.0,42,0.00,,SKC,0.00,118.00,VWS V14.00,2013-03-27 20:57:00,
2013-03-27 17:02:00,65.6,41.9,30.13,North,355,6.0,11.0,42,0.00,,SKC,0.00,118.00,VWS V14.00,2013-03-27 21:02:00,
2013-03-27 17:07:00,65.6,43.1,30.13,NNW,344,5.0,10.0,44,0.00,,SKC,0.00,118.00,VWS V14.00,2013-03-27 21:07:00,
2013-03-27 17:12:00,65.8,42.7,30.13,NW,313,1.0,7.0,43,0.00,,SKC,0.00,116.00,VWS V14.00,2013-03-27 21:12:00,
2013-03-27 17:17:00,65.9,42.2,30.13,NNW,335,9.0,11.0,42,0.00,,SKC,0.00,114.00,VWS V14.00,2013-03-27 21:17:00,
2013-03-27 17:22:00,65.9,42.2,30.13,NNW,346,9.0,12.0,42,0.00,,SKC,0.00,113.00,VWS V14.00,2013-03-27 21:22:00,
2013-03-27 17:27:00,65.8,41.5,30.13,North,349,8.0,10.0,41,0.00,,SKC,0.00,113.00,VWS V14.00,2013-03-27 21:27:00,
2013-03-27 17:32:00,65.4,41.7,30.13,North,355,2.0,7.0,42,0.00,,SKC,0.00,111.00,VWS V14.00,2013-03-27 21:32:00,
2013-03-27 17:37:00,65.6,42.5,30.13,NNW,348,2.0,7.0,43,0.00,,SKC,0.00,111.00,VWS V14.00,2013-03-27 21:37:00,
2013-03-27 17:42:00,66.1,42.4,30.13,North,355,7.0,8.0,42,0.00,,SKC,0.00,107.00,VWS V14.00,2013-03-27 21:42:00,
2013-03-27 17:47:00,65.9,41.6,30.14,NNW,338,4.0,7.0,41,0.00,,SKC,0.00,105.00,VWS V14.00,2013-03-27 21:47:00,
2013-03-27 17:52:00,65.7,42.0,30.13,NNE,17,7.0,8.0,42,0.00,,SKC,0.00,104.00,VWS V14.00,2013-03-27 21:52:00,
2013-03-27 17:57:00,65.4,41.7,30.13,NNE,27,9.0,9.0,42,0.00,,SKC,0.00,102.00,VWS V14.00,2013-03-27 21:57:00,
2013-03-27 18:02:00,65.4,41.1,30.13,NNW,347,0.0,6.0,41,0.00,,SKC,0.00,98.00,VWS V14.00,2013-03-27 22:02:00,
2013-03-27 18:07:00,65.8,42.7,30.14,North,360,6.0,7.0,43,0.00,,SKC,0.00,97.00,VWS V14.00,2013-03-27 22:07:00,
2013-03-27 18:12:00,65.5,40.6,30.14,North,355,5.0,6.0,40,0.00,,SKC,0.00,93.00,VWS V14.00,2013-03-27 22:12:00,
2013-03-27 18:17:00,65.6,40.7,30.14,NNW,348,3.0,5.0,40,0.00,,SKC,0.00,90.00,VWS V14.00,2013-03-27 22:17:00,
2013-03-27 18:22:00,65.7,40.7,30.14,NW,325,5.0,6.0,40,0.00,,SKC,0.00,86.00,VWS V14.00,2013-03-27 22:22:00,
2013-03-27 18:27:00,65.7,40.7,30.14,NW,311,5.0,7.0,40,0.00,,SKC,0.00,81.00,VWS V14.00,2013-03-27 22:27:00,
2013-03-27 18:32:00,65.6,40.0,30.14,WNW,300,5.0,7.0,39,0.00,,SKC,0.00,77.00,VWS V14.00,2013-03-27 22:32:00,
2013-03-27 18:37:00,65.4,41.1,30.14,NNW,342,6.0,6.0,41,0.00,,SKC,0.00,74.00,VWS V14.00,2013-03-27 22:37:00,
2013-03-27 18:42:00,65.3,41.0,30.14,NNW,339,2.0,8.0,41,0.00,,SKC,0.00,69.00,VWS V14.00,2013-03-27 22:42:00,
2013-03-27 18:48:00,65.2,40.3,30.14,NNW,338,5.0,8.0,40,0.00,,SKC,0.00,63.00,VWS V14.00,2013-03-27 22:48:00,
2013-03-27 18:53:00,65.0,40.8,30.14,NNW,346,4.0,7.0,41,0.00,,SKC,0.00,58.00,VWS V14.00,2013-03-27 22:53:00,
2013-03-27 18:58:00,64.7,46.7,30.15,North,355,5.0,5.0,52,0.00,,SKC,0.00,51.00,VWS V14.00,2013-03-27 22:58:00,
2013-03-27 19:03:00,64.2,47.2,30.15,NNE,31,3.0,6.0,54,0.00,,SKC,0.00,46.00,VWS V14.00,2013-03-27 23:03:00,
2013-03-27 19:08:00,63.8,47.3,30.15,NE,49,4.0,7.0,55,0.00,,SKC,0.00,39.00,VWS V14.00,2013-03-27 23:08:00,
2013-03-27 19:13:00,63.4,47.5,30.15,NE,43,6.0,7.0,56,0.00,,SKC,0.00,28.00,VWS V14.00,2013-03-27 23:13:00,
2013-03-27 19:18:00,63.1,47.2,30.15,NE,52,3.0,9.0,56,0.00,,SKC,0.00,21.00,VWS V14.00,2013-03-27 23:18:00,
2013-03-27 19:23:00,62.9,47.5,30.15,NE,51,4.0,4.0,57,0.00,,SKC,0.00,7.00,VWS V14.00,2013-03-27 23:23:00,
2013-03-27 19:28:00,62.7,47.7,30.15,NE,52,3.0,4.0,58,0.00,,SKC,0.00,5.00,VWS V14.00,2013-03-27 23:28:00,
2013-03-27 19:33:00,62.5,47.5,30.15,NE,53,5.0,5.0,58,0.00,,SKC,0.00,0.00,VWS V14.00,2013-03-27 23:33:00,
2013-03-27 19:38:00,62.3,47.3,30.15,NE,53,1.0,4.0,58,0.00,,SKC,0.00,0.00,VWS V14.00,2013-03-27 23:38:00,
2013-03-27 19:43:00,62.1,47.6,30.15,ENE,58,5.0,6.0,59,0.00,,SKC,0.00,0.00,VWS V14.00,2013-03-27 23:43:00,
2013-03-27 19:48:00,62.0,47.5,30.16,ENE,59,2.0,4.0,59,0.00,,SKC,0.00,0.00,VWS V14.00,2013-03-27 23:48:00,
2013-03-27 19:53:00,61.8,47.8,30.16,ENE,59,0.0,1.0,60,0.00,,SKC,0.00,0.00,VWS V14.00,2013-03-27 23:53:00,
2013-03-27 19:58:00,61.6,47.6,30.16,ENE,60,2.0,4.0,60,0.00,,SKC,0.00,0.00,VWS V14.00,2013-03-27 23:58:00,
2013-03-27 20:03:00,61.5,47.9,30.16,ENE,60,0.0,0.0,61,0.00,,SKC,0.00,0.00,VWS V14.00,2013-03-28 00:03:00,
2013-03-27 20:08:00,61.3,47.8,30.16,ENE,60,3.0,5.0,61,0.00,,SKC,0.00,0.00,VWS V14.00,2013-03-28 00:08:00,
2013-03-27 20:13:00,61.2,48.1,30.16,ENE,60,0.0,3.0,62,0.00,,SKC,0.00,0.00,VWS V14.00,2013-03-28 00:13:00,
2013-03-27 20:18:00,61.1,47.6,30.17,ENE,60,1.0,4.0,61,0.00,,SKC,0.00,0.00,VWS V14.00,2013-03-28 00:18:00,
2013-03-27 20:23:00,60.9,47.8,30.17,ENE,60,3.0,3.0,62,0.00,,SKC,0.00,0.00,VWS V14.00,2013-03-28 00:23:00,
2013-03-27 20:28:00,60.8,47.7,30.17,ENE,60,3.0,5.0,62,0.00,,SKC,0.00,0.00,VWS V14.00,2013-03-28 00:28:00,
2013-03-27 20:33:00,60.7,47.2,30.17,ENE,60,3.0,4.0,61,0.00,,SKC,0.00,0.00,VWS V14.00,2013-03-28 00:33:00,
2013-03-27 20:38:00,60.7,47.6,30.17,ENE,60,2.0,4.0,62,0.00,,SKC,0.00,0.00,VWS V14.00,2013-03-28 00:38:00,
2013-03-27 20:43:00,60.5,47.4,30.17,ENE,60,4.0,5.0,62,0.00,,SKC,0.00,0.00,VWS V14.00,2013-03-28 00:43:00,
2013-03-27 20:48:00,60.4,47.8,30.16,ENE,60,3.0,3.0,63,0.00,,SKC,0.00,0.00,VWS V14.00,2013-03-28 00:48:00,
2013-03-27 20:53:00,60.3,47.7,30.17,ENE,60,2.0,3.0,63,0.00,,SKC,0.00,0.00,VWS V14.00,2013-03-28 00:53:00,
2013-03-27 20:58:00,60.2,47.6,30.16,ENE,60,0.0,1.0,63,0.00,,SKC,0.00,0.00,VWS V14.00,2013-03-28 00:58:00,
2013-03-27 21:03:00,60.1,47.5,30.17,ENE,60,3.0,3.0,63,0.00,,SKC,0.00,0.00,VWS V14.00,2013-03-28 01:03:00,
2013-03-27 21:08:00,60.0,47.8,30.17,ENE,60,0.0,0.0,64,0.00,,SKC,0.00,0.00,VWS V14.00,2013-03-28 01:08:00,
2013-03-27 21:13:00,59.8,47.6,30.17,ENE,60,0.0,1.0,64,0.00,,SKC,0.00,0.00,VWS V14.00,2013-03-28 01:13:00,
2013-03-27 21:18:00,59.7,47.5,30.17,ENE,60,1.0,2.0,64,0.00,,SKC,0.00,0.00,VWS V14.00,2013-03-28 01:18:00,
2013-03-27 21:23:00,59.6,47.8,30.17,ENE,60,4.0,4.0,65,0.00,,SKC,0.00,0.00,VWS V14.00,2013-03-28 01:23:00,
2013-03-27 21:29:00,59.5,47.3,30.17,ENE,60,5.0,5.0,64,0.00,,SKC,0.00,0.00,VWS V14.00,2013-03-28 01:29:00,
2013-03-27 21:34:00,59.4,47.7,30.18,ENE,60,0.0,0.0,65,0.00,,SKC,0.00,0.00,VWS V14.00,2013-03-28 01:34:00,
2013-03-27 21:39:00,59.3,47.5,30.17,ENE,60,0.0,0.0,65,0.00,,SKC,0.00,0.00,VWS V14.00,2013-03-28 01:39:00,
2013-03-27 21:44:00,59.1,47.8,30.17,ENE,60,0.0,3.0,66,0.00,,SKC,0.00,0.00,VWS V14.00,2013-03-28 01:44:00,
2013-03-27 21:49:00,58.9,48.0,30.18,ENE,60,0.0,0.0,67,0.00,,SKC,0.00,0.00,VWS V14.00,2013-03-28 01:49:00,
2013-03-27 21:54:00,58.7,47.8,30.18,ENE,60,0.0,0.0,67,0.00,,SKC,0.00,0.00,VWS V14.00,2013-03-28 01:54:00,
2013-03-27 21:59:00,58.6,47.7,30.18,ENE,60,0.0,1.0,67,0.00,,SKC,0.00,0.00,VWS V14.00,2013-03-28 01:59:00,
2013-03-27 22:04:00,58.5,48.0,30.18,ENE,60,0.0,0.0,68,0.00,,SKC,0.00,0.00,VWS V14.00,2013-03-28 02:04:00,
2013-03-27 22:09:00,58.4,47.9,30.18,ENE,60,0.0,0.0,68,0.00,,SKC,0.00,0.00,VWS V14.00,2013-03-28 02:09:00,
2013-03-27 22:14:00,58.3,48.2,30.18,ENE,60,0.0,0.0,69,0.00,,SKC,0.00,0.00,VWS V14.00,2013-03-28 02:14:00,
2013-03-27 22:19:00,58.2,47.7,30.18,ENE,60,0.0,0.0,68,0.00,,SKC,0.00,0.00,VWS V14.00,2013-03-28 02:19:00,
2013-03-27 22:24:00,58.1,48.0,30.18,ENE,60,0.0,0.0,69,0.00,,SKC,0.00,0.00,VWS V14.00,2013-03-28 02:24:00,
2013-03-27 22:29:00,58.0,47.9,30.18,ENE,60,0.0,0.0,69,0.00,,SKC,0.00,0.00,VWS V14.00,2013-03-28 02:29:00,
2013-03-27 22:34:00,57.8,47.7,30.18,ENE,60,0.0,1.0,69,0.00,,SKC,0.00,0.00,VWS V14.00,2013-03-28 02:34:00,
2013-03-27 22:39:00,57.8,48.1,30.18,ENE,60,0.0,0.0,70,0.00,,SKC,0.00,0.00,VWS V14.00,2013-03-28 02:39:00,
2013-03-27 22:44:00,57.7,48.0,30.18,ENE,60,0.0,0.0,70,0.00,,SKC,0.00,0.00,VWS V14.00,2013-03-28 02:44:00,
2013-03-27 22:49:00,57.6,48.3,30.18,ENE,60,0.0,0.0,71,0.00,,SKC,0.00,0.00,VWS V14.00,2013-03-28 02:49:00,
2013-03-27 22:54:00,57.4,48.1,30.18,ENE,60,0.0,0.0,71,0.00,,SKC,0.00,0.00,VWS V14.00,2013-03-28 02:54:00,
2013-03-27 22:59:00,57.3,48.0,30.18,ENE,60,0.0,0.0,71,0.00,,SKC,0.00,0.00,VWS V14.00,2013-03-28 02:59:00,
2013-03-27 23:04:00,57.2,47.9,30.19,ENE,59,0.0,0.0,71,0.00,,SKC,0.00,0.00,VWS V14.00,2013-03-28 03:04:00,
2013-03-27 23:09:00,57.1,48.2,30.19,ENE,60,0.0,0.0,72,0.00,,SKC,0.00,0.00,VWS V14.00,2013-03-28 03:09:00,
2013-03-27 23:14:00,57.0,48.4,30.19,ENE,60,0.0,1.0,73,0.00,,SKC,0.00,0.00,VWS V14.00,2013-03-28 03:14:00,
2013-03-27 23:19:00,56.8,48.2,30.19,ENE,60,0.0,0.0,73,0.00,,SKC,0.00,0.00,VWS V14.00,2013-03-28 03:19:00,
2013-03-27 23:24:00,56.7,48.9,30.19,ENE,60,0.0,0.0,75,0.00,,SKC,0.00,0.00,VWS V14.00,2013-03-28 03:24:00,
2013-03-27 23:29:00,56.5,48.7,30.19,ENE,60,0.0,0.0,75,0.00,,SKC,0.00,0.00,VWS V14.00,2013-03-28 03:29:00,
2013-03-27 23:34:00,56.2,48.8,30.19,ENE,60,0.0,0.0,76,0.00,,SKC,0.00,0.00,VWS V14.00,2013-03-28 03:34:00,
2013-03-27 23:39:00,56.0,48.5,30.19,ENE,60,0.0,0.0,76,0.00,,SKC,0.00,0.00,VWS V14.00,2013-03-28 03:39:00,
2013-03-27 23:44:00,55.7,48.3,30.19,ENE,60,0.0,0.0,76,0.00,,SKC,0.00,0.00,VWS V14.00,2013-03-28 03:44:00,
2013-03-27 23:49:00,55.5,48.4,30.19,ENE,60,1.0,3.0,77,0.00,,SKC,0.00,0.00,VWS V14.00,2013-03-28 03:49:00,
2013-03-27 23:54:00,55.3,48.2,30.18,ENE,60,2.0,2.0,77,0.00,,SKC,0.00,0.00,VWS V14.00,2013-03-28 03:54:00,
2013-03-27 23:59:00,55.2,48.1,30.18,ENE,60,0.0,0.0,77,0.00,,SKC,0.00,0.00,VWS V14.00,2013-03-28 03:59:00,